Location: Maccacari
(45.1333°N, 11.1333°E)
Time: 03:25:17
(UTC+00:00)

Altair - Pass Details

Date: 28 January 2021
Orbit: 1501 x 1682 km, 47.2° (Epoch: 01 March)

Event Time Altitude Azimuth Distance (km) Brightness Sun altitude
Rises 03:19:24 0° 230° (SW) 4,821 - -35.3°
Reaches altitude 10° 03:22:30 10° 227° (SW) 3,859 - -34.8°
Exits shadow 03:29:46 51° 201° (SSW) 2,001 7.8 -33.5°
Maximum altitude 03:32:16 65° 148° (SSE) 1,804 7.8 -33.1°
Drops below altitude 10° 03:42:16 10° 70° (ENE) 3,949 10.5 -31.4°
Sets 03:45:28 0° 68° (ENE) 4,939 11.2 -30.8°
